Location: Mentone
(34.5413°N, 85.5351°W)
Time: 08:10:57
(UTC-06:00)

Vanguard 1 - Visible Passes

Search period start: 22 January 2017 00:00
Search period end: 01 February 2017 00:00
Orbit: 652 x 3832 km, 34.2° (Epoch: 21 January)

Date Brightness Start Highest point End Pass type
(mag) Time Alt. Az. Time Alt. Az. Time Alt. Az.
22 Jan 13.0 01:52:53 15° E 01:52:53 15° E 01:53:55 10° E visible
22 Jan 10.7 04:05:35 72° W 04:06:46 89° S 04:13:34 10° E visible
22 Jan 13.8 21:01:07 10° S 21:07:59 18° SSE 21:07:59 18° SSE visible
23 Jan 12.6 02:12:41 23° E 02:12:41 23° E 02:15:00 10° E visible
23 Jan 10.6 04:25:23 54° W 04:28:02 85° S 04:34:35 10° ESE visible
23 Jan 13.8 21:19:54 10° SSW 21:27:46 22° S 21:27:46 22° S visible
24 Jan 12.2 02:32:28 33° E 02:32:28 33° E 02:36:06 10° E visible
24 Jan 10.6 04:45:11 40° W 04:49:15 77° SSW 04:55:33 10° ESE visible
24 Jan 13.9 19:28:28 10° SSE 19:34:46 12° SE 19:34:53 12° SE visible
24 Jan 13.7 21:39:29 10° SSW 21:47:36 24° S 21:47:36 24° S visible
25 Jan 11.8 02:52:17 46° E 02:52:17 46° E 02:57:11 10° E visible
25 Jan 10.7 05:04:59 29° W 05:10:21 65° SSW 05:16:25 10° ESE visible
25 Jan 13.7 19:42:58 10° S 19:54:47 18° SE 19:54:47 18° SE visible
25 Jan 13.7 21:59:38 10° SSW 22:07:31 25° SSW 22:07:31 25° SSW visible
26 Jan13.600:59:22E00:59:22E00:20:14WSWvisible
26 Jan 11.4 03:12:05 63° E 03:12:05 63° E 03:18:16 10° E visible
26 Jan 10.8 05:24:48 21° W 05:31:19 52° SSW 05:37:08 10° SE visible
26 Jan 13.5 20:00:44 10° S 20:14:45 25° SSE 20:14:45 25° SSE visible
26 Jan 13.7 22:20:14 10° SW 22:27:29 25° SW 22:27:29 25° SW visible
27 Jan 13.3 01:19:11 10° E 01:19:11 10° E 01:19:17 10° E visible
27 Jan 11.1 03:31:54 81° SE 03:31:54 81° SE 03:39:19 10° ESE visible
27 Jan 11.1 05:44:37 14° W 05:52:07 39° SW 05:57:38 10° SSE visible
27 Jan 13.4 20:19:41 10° SSW 20:34:47 31° SSE 20:34:47 31° SSE visible
27 Jan 13.8 22:41:13 10° SW 22:47:31 23° SW 22:47:31 23° SW visible
28 Jan 13.1 01:39:01 17° E 01:39:01 17° E 01:40:26 10° E visible
28 Jan 11.0 03:51:43 73° WSW 03:52:36 77° SSW 04:00:17 10° ESE visible
28 Jan 11.5 06:05:03 10° W 06:12:45 27° SW 06:17:48 10° SSE visible
28 Jan 13.8 18:28:01 10° SSE 18:35:37 12° SE 18:42:07 11° ESE visible
28 Jan 13.3 20:39:21 10° SSW 20:54:52 38° SSE 20:54:52 38° SSE visible
28 Jan 13.9 23:02:32 10° WSW 23:07:36 21° SW 23:07:36 21° SW visible
29 Jan 12.7 01:58:51 25° E 01:58:51 25° E 02:01:35 10° E visible
29 Jan 11.0 04:11:34 56° WSW 04:13:46 67° SSW 04:21:10 10° ESE visible
29 Jan 13.6 18:43:19 10° S 18:56:43 19° SE 19:02:15 17° ESE visible
29 Jan 13.2 20:59:32 10° SSW 21:15:00 43° S 21:15:00 43° S visible
29 Jan 14.0 23:24:08 10° WSW 23:27:44 17° WSW 23:27:44 17° WSW visible
30 Jan 12.4 02:18:43 34° E 02:18:43 34° E 02:22:44 10° E visible
30 Jan 11.2 04:31:27 42° WSW 04:34:46 55° SSW 04:41:52 10° SE visible
30 Jan 13.4 19:01:17 10° S 19:17:47 27° SE 19:22:25 25° ESE visible
30 Jan 13.1 21:20:09 10° SW 21:35:10 46° SSW 21:35:10 46° SSW visible
30 Jan 13.9 23:45:57 10° WSW 00:25:54 - E 23:47:55 14° WSW visible
31 Jan 12.0 02:38:37 44° ESE 02:38:37 44° ESE 02:43:49 10° ESE visible
31 Jan 11.4 04:51:21 31° W 04:55:35 43° SW 05:02:22 10° SSE visible
31 Jan 13.2 19:20:21 10° SSW 19:38:51 34° SE 19:42:37 33° ESE visible
31 Jan 13.2 21:41:06 10° SW 21:55:22 46° SW 21:55:22 46° SW visible
